Weather in Dobrianka

Ukraine / Kirovohrad Region     48°20′52″N   30°54′38″E
temp.,
°C
wind,
m/s
gust,
m/s
humid.,
%
clouds,
%
prec.,
mm/h
press.,
hPa
HPBL,
m
20 june, sun
sun2000:00+19ene4119491 4.2 1015327
03:00+18ne51295100 6.4 1014364
06:00+18ne51192100 1.3 1013400
09:00+21e6875100 1.4 1013703
12:00+23e7865100 0.1 10131161
15:00+23e687272 0.6 10121145
18:00+25e696661 0.6 10121399
21:00+20ene51077100 0.6 1012278
21 june, mon
mon2100:00+20e497864 0.0 1012211
03:00+18e35914 0.0 101277
06:00+18e239161 0.0 101269
09:00+23e2374100 0.0 1013436
12:00+26ese2361100 0.0 10121100
15:00+28e12525 0.0 10121530
18:00+29ne225293 0.0 10111670
21:00+24nne337163 0.0 101219
22 june, tue
tue2200:00+22ene338418 0.0 101231
03:00+21ene229064 0.0 101227
06:00+21ne358733 0.0 1012102
09:00+23nne4879100 0.0 1011328
12:00+27ene6862100 0.0 1012973
15:00+27ese4564100 0.0 10121119
18:00+29e3564100 0.0 1011802
21:00+25e51080100 0.1 1012255
23 june, wed
wed2300:00+21e3685100 1.4 1012115
03:00+19e3382100 2.0 101334
06:00+19ene358212 0.0 101381
09:00+25ne236288 0.0 1013352
12:00+28nne2358100 0.0 1013922
15:00+30n325698 0.0 10131393
18:00+29nne225663 0.0 10141316
21:00+25nne33772 0.0 101427
24 june, thu
thu2400:00+21e228752 2.8 101521
03:00+22nne118274 3.6 101511
06:00+22nw228456 0.0 101616
09:00+26nne347134 0.0 1016294
12:00+30ene345556 0.0 10161125
15:00+32nne334611 0.0 10151581
18:00+30ne4656100 0.0 1015519
21:00+24ese47739 0.1 1016118